Regional Weather Roundup
Issued by NWS

Home | Current Version | Previous Version | Text Only | Print | Product List | Glossary Off
Versions: 1 2 3 4 5 6 7 8 9 10 11 12 13 14 15 16 17 18 19 20 21 22 23 24 25 26 27 28 29 30 31 32 33 34 35 36 37 38 39 40 41 42 43 44 45 46 47 48 49 50

000
ASUS45 KSLC 241810
RWRUT

UTAH REGIONAL WEATHER ROUNDUP
NATIONAL WEATHER SERVICE SALT LAKE CITY UT
1200 PM MDT THU JUL 24 2014

UTZ001>011-023>025-241900-

NORTHERN UTAH

CITY           SKY/WX    TMP DP  RH WIND       PRES   REMARKS
HILL AFB       SUNNY     85  46  25 W6        30.10S
LOGAN          NOT AVBL
OGDEN          SUNNY     85  44  23 W7        30.07S
PROVO AIRPORT  MOSUNNY   91  45  19 SE9       30.09S
SALT LAKE CITY MOSUNNY   88  44  21 NW14      30.04S
VERNAL         PTSUNNY   80  50  34 SW13      30.20F
WENDOVER       SUNNY     86  30  13 CALM      30.08S
HEBER CITY     MOSUNNY   90  43  19 SW9G17    30.15F
WEST JORDAN    SUNNY     93  54  26 SE15      30.07S HX  91

$$

UTZ012>022-026-027-241900-

SOUTHERN UTAH

CITY           SKY/WX    TMP DP  RH WIND       PRES   REMARKS
BRYCE CANYON   MOSUNNY   80  45  28 S14G23    30.39F
CEDAR CITY     MOSUNNY   89  26  10 S15G26    30.19S
MILFORD        SUNNY     91  33  12 S21G28    30.11F
MOAB/CYNLANDS  SUNNY     91  49  23 S13       30.13S
PRICE          CLOUDY    82  49  31 SE9       30.24F
ST GEORGE      PTCLDY    99  43  14 SE9       30.00S HX  94
KANAB            N/A     88  46  23 S7        30.22F

$$

REGIONAL REPORTS     COLORADO/ARIZONA

CITY           SKY/WX    TMP DP  RH WIND       PRES   REMARKS
CRAIG, CO      CLOUDY    71  49  45 SW16      30.28S
GRAND JUNCTION PTSUNNY   86  49  27 SE10      30.17F
RIFLE          CLOUDY    84  50  30 N5        30.24F
MONTROSE       MOSUNNY   85  52  32 N12       30.27F
CORTEZ         PTSUNNY   84  50  30 W5        30.29F
PAGE, AZ       PTSUNNY   92  53  26 NW7       30.14S
GRAND CANYON   PTSUNNY   81  49  32 S9        30.35F
KINGMAN        MOSUNNY   97  47  18 VRB3      30.04F HX  93
FLAGSTAFF      PTSUNNY   79  48  33 MISG      30.38F

$$

REGIONAL REPORTS    NEVADA/IDAHO/WYOMING

CITY           SKY/WX    TMP DP  RH WIND       PRES   REMARKS
LAS VEGAS, NV  MOSUNNY  105  28   7 S16G22    29.86F HX  98
ELY            SUNNY     87  21   9 S15       30.20S
ELKO           SUNNY     80  27  14 VRB7G18   30.18S
POCATELLO, ID  SUNNY     75  43  31 W25G35    30.16R
BURLEY         SUNNY     70  42  36 W16G25    30.19R
EVANSTON, WY   SUNNY     81  41  24 SW21G33   30.25S
ROCK SPRINGS   PTSUNNY   82  44  26 S24G30    30.22F

$$


USA.gov is the U.S. government's official web portal to all federal, state and local government web resources and services.